Regional Weather Roundup
Issued by NWS

Home | Current Version | Previous Version | Graphics & Text | Print | Product List | Glossary On
Versions: 1 2 3 4 5 6 7 8 9 10 11 12 13 14 15 16 17 18 19 20 21 22 23 24 25 26 27 28 29 30 31 32 33 34 35 36 37 38 39 40 41 42 43 44 45 46 47 48 49 50
000
ASUS45 KCYS 191510
RWRWY

WYOMING REGIONAL WEATHER ROUNDUP
NATIONAL WEATHER SERVICE CHEYENNE WY
800 AM MST FRI DEC 19 2014

NOTE:  "FAIR" INDICATES FEW OR NO CLOUDS BELOW 12,000 FEET
WITH NO SIGNIFICANT WEATHER AND/OR OBSTRUCTIONS TO VISIBILITY.

WYZ001-191600-
YELLOWSTONE NATIONAL PARK

CITY           SKY/WX    TMP DP  RH WIND       PRES   REMARKS
LK YELLOWSTONE   N/A     23  21  92 CALM      30.07R
W YELLOWSTONE  NOT AVBL

$$
WYZ002>013-054>058-071-098>099-191600-
NORTHERN WYOMING

CITY           SKY/WX    TMP DP  RH WIND       PRES   REMARKS
JACKSON        PTCLDY    27  25  93 S3        30.09S
CODY           MOCLDY    37  21  52 W10       29.96S WCI  30
GREYBULL       FAIR       6   3  87 CALM      30.05F
WORLAND        FAIR       1  -3  83 CALM      30.04S
SHERIDAN       FAIR      33  15  47 CALM      29.95S
BUFFALO        FAIR      31  12  45 NW3       29.97S
GILLETTE       FAIR      27  13  55 CALM      29.96S
HULETT           N/A    N/A N/A N/A MISG        N/A
NEWCASTLE      FAIR      18  14  86 CALM      30.02S

$$
WYZ014>020-022>026-101>103-191600-
CENTRAL WYOMING

CITY           SKY/WX    TMP DP  RH WIND       PRES   REMARKS
BIG PINEY      FAIR      10   7  87 CALM      30.13R
PINEDALE       CLOUDY    19  19 100 CALM      30.13S
DUBOIS         CLOUDY    28  18  64 NW13G20   30.01F WCI  18
LANDER         FAIR      -1  -5  82 CALM      30.05S
RIVERTON       FOG        5   2  87 CALM      30.07R VSB<1/4
CASPER         FAIR      23  15  71 SW18      30.04S WCI   9
DOUGLAS        FAIR      20  14  77 NW9       30.04R WCI   9

$$
WYZ021-027>030-104>119-191600-
SOUTHERN WYOMING

CITY           SKY/WX    TMP DP  RH WIND       PRES   REMARKS
EVANSTON       FAIR      20  18  92 SW9       30.15S WCI   9
KEMMERER       CLOUDY    27  21  80 SW9G17    30.14S WCI  17
FORT BRIDGER   CLOUDY    26  20  79 SW9       30.17S WCI  17
ROCK SPRINGS   CLOUDY    23  16  74 SW16      30.14S WCI  10
DIXON          CLOUDY   N/A N/A N/A SE5       30.23S
RAWLINS        FAIR      20  16  84 SW15      30.10S WCI   6
SARATOGA       PTSUNNY   19  16  86 SW13      30.11F WCI   7
LARAMIE        FAIR      19  12  74 SW12      30.06S WCI   7
CHEYENNE       FAIR      29  14  53 SW14      30.05R WCI  18
TORRINGTON     FAIR     N/A N/A N/A E5        30.04S
PINE BLUFFS    FAIR      23  16  74 W8        30.06F WCI  14

$$



USA.gov is the U.S. government's official web portal to all federal, state and local government web resources and services.